Airfield :
LOGIN :

Register | Disclaimer

   EN    FR    IT 

 










Legend :    VFR   Marginal VFR   IFR   Intensive IFR   Very Intensive IFR
Visi :
Ceiling :
>= 8 km
>= 3000ft
5 to 8 km
1000 to 3000 ft
1500m to 5 km
500 to 1000 ft
800 to 1500m
200 to 500 ft
< 800m
< 200 ft
Symbols :   Thunderstorms  Fog  Heavy snow  Heavy precipitations  Wind > 20 kt
SIGMETs :     Misc.  Thunderstorms  Icing  Turbulence  Mountain Waves  Volcanic Ashes






- Airport Elevation : 3245 ft
- IATA code : TID


DAOB - Bou Chekif - Tiaret

CURRENT METAR :
  • 270700Z 24005KT CAVOK 17/13 Q1026

EXPIRED METARs :
  • 270600Z 23005KT CAVOK 14/11 Q1025
  • 270500Z 23004KT CAVOK 14/11 Q1025

TAF TAF DAOB
Valid from the 27 at 06:00 until the 28 at 06:00 UTC


270500Z 2706/2806 24006KT CAVOK
BECMG 2709/2712 34010KT
BECMG 2719/2721 VRB02KT



MET'MAP, your aeronautical weather chart ! - Copyright ORBIFLY December 2007 - Disclaimer

ORBIFLY MET'MAP TEAM :

Programming & Development : Alexandra Zaïnal
Concept & original design : Baudouin d'Aumeries
Assistance for programming : Marc-Olivier Méhu
Technical & hardware support : Manuel Goepfert

Contact : metmap@orbifly.com




SOURCES & CREDITS :

   NOAA